This demonstration page uses our WeatherBlox Daily Observations layout. Learn more.

Left ArrowRight Arrow

53.62937, 11.41316

Hourly Observations for July 16, 2018

Temp ( °F °C ) Dew Point ( °F °C ) Humidity (%) Winds ( mph kmh ) Pressure ( in mb ) Visibility ( mi km ) Precip ( " mm )
6:50 am 06:50 Mostly Sunny 57 14 57 14 100 100 VRB 2 4 30.00 1016 7 11 N/A
7:20 am 07:20 Mostly Sunny 61 16 59 15 94 94 VRB 2 4 30.00 1016 7 11 N/A
7:50 am 07:50 Mostly Sunny 64 18 57 14 78 78 VRB 1 2 30.00 1016 7 11 N/A
8:20 am 08:20 Mostly Sunny 66 19 59 15 78 78 N 3 6 30.00 1016 7 11 N/A
8:50 am 08:50 Mostly Sunny 68 20 59 15 73 73 NNE 3 6 30.00 1016 7 11 N/A
9:20 am 09:20 Mostly Sunny 70 21 59 15 69 69 NNE 5 7 30.00 1016 7 11 N/A
9:50 am 09:50 Mostly Sunny 72 22 59 15 65 65 NE 3 6 30.00 1016 7 11 N/A
10:20 am 10:20 Mostly Sunny 72 22 57 14 61 61 NE 6 9 29.97 1015 7 11 N/A
10:50 am 10:50 Mostly Sunny 73 23 59 15 61 61 NNE 7 11 29.97 1015 30 48 N/A
11:20 am 11:20 Mostly Sunny 75 24 57 14 54 54 NNE 7 11 29.97 1015 30 48 N/A
11:50 am 11:50 Mostly Sunny 75 24 54 12 47 47 NNE 9 15 29.97 1015 30 48 N/A
12:20 pm 12:20 Mostly Sunny 75 24 54 12 47 47 N 8 13 29.97 1015 30 48 N/A
12:50 pm 12:50 Mostly Sunny 77 25 54 12 44 44 NNE 9 15 29.97 1015 7 11 N/A
1:20 pm 13:20 Mostly Sunny 79 26 54 12 42 42 NE 8 13 29.97 1015 7 11 N/A
1:50 pm 13:50 Mostly Sunny 77 25 52 11 42 42 NE 9 15 29.97 1015 7 11 N/A
2:20 pm 14:20 Mostly Sunny 77 25 52 11 42 42 ENE 10 17 29.97 1015 7 11 N/A
2:50 pm 14:50 Mostly Sunny 79 26 54 12 42 42 NE 10 17 29.94 1014 7 11 N/A
3:20 pm 15:20 Mostly Sunny 79 26 54 12 42 42 NE 10 17 29.94 1014 7 11 N/A
3:50 pm 15:50 Mostly Sunny 79 26 52 11 39 39 NNE 10 17 29.94 1014 7 11 N/A
4:20 pm 16:20 Mostly Sunny 79 26 52 11 39 39 NNE 9 15 29.94 1014 7 11 N/A
4:50 pm 16:50 Mostly Sunny 79 26 55 13 45 45 NNE 9 15 29.91 1013 7 11 N/A
5:20 pm 17:20 Mostly Sunny 79 26 55 13 45 45 NNE 8 13 29.91 1013 7 11 N/A
5:50 pm 17:50 Mostly Sunny 79 26 57 14 48 48 NNE 9 15 29.91 1013 7 11 N/A
6:20 pm 18:20 Mostly Sunny 79 26 55 13 45 45 N 9 15 29.91 1013 7 11 N/A
6:50 pm 18:50 Mostly Sunny 77 25 54 12 44 44 ENE 9 15 29.91 1013 7 11 N/A
7:20 pm 19:20 Mostly Sunny 77 25 54 12 44 44 NE 9 15 29.91 1013 7 11 N/A
7:50 pm 19:50 Mostly Sunny 77 25 55 13 47 47 NE 8 13 29.91 1013 7 11 N/A
8:20 pm 20:20 Mostly Sunny 75 24 57 14 54 54 NNE 7 11 29.91 1013 7 11 N/A
8:50 pm 20:50 Mostly Sunny 73 23 57 14 57 57 NNE 7 11 29.91 1013 7 11 N/A

Powered by AerisWeather